Location: Champaign/Urbana Astronomical Society Observatory
(40.0333°N, 88.2833°W)
Time: 18:05:42
(UTC-05:00)

AIST 2D - Pass Details

Date: 30 May 2019
Orbit: 455 x 473 km, 97.2° (Epoch: 25 June)

Event Time Altitude Azimuth Distance (km) Brightness Sun altitude
Rises 00:01:12 0° 6° (N) 2,498 ? -27.2°
Reaches altitude 10° 00:03:17 10° 2° (N) 1,615 ? -27.3°
Enters shadow 00:05:10 29° 349° (N) 878 ? -27.3°
